FW8683 Weather Reports


Display with metric or nautical units.
time (UTC)temp
F
wind
direction
speed
MPH
gust
MPH
rain 1hr
in
rain 24hr
in
rain mn
in
humidity
%
barometer
mb
20260509023044 82 210 0.0 3.0 0.00 0.00 0.00 56 1013.5
20260509021544 84 127 0.0 5.0 0.00 0.00 0.00 54 1013.5
20260509020041 86 0 0.0 4.0 0.00 0.00 0.00 53 1013.5
20260509014550 87 126 0.0 3.0 0.00 0.00 0.00 51 1013.6
20260509013055 88 0 1.0 4.0 0.00 0.00 0.00 47 1013.7
20260509011555 89 360 0.0 3.0 0.00 0.00 0.00 42 1013.8
20260509010044 90 0 0.0 4.0 0.00 0.00 0.00 42 1013.9
20260509004546 90 0 0.0 2.0 0.00 0.00 0.00 40 1014.0
20260509003056 89 352 0.0 2.0 0.00 0.00 0.00 43 1014.2
20260509001541 89 350 1.0 6.0 0.00 0.00 0.00 42 1014.3
20260509000046 90 290 1.0 4.0 0.00 0.00 0.00 40 1014.4
20260508234546 90 220 0.0 5.0 0.00 0.00 0.00 44 1014.5
20260508233047 89 0 0.0 3.0 0.00 0.00 0.00 44 1014.7
20260508231551 89 0 1.0 6.0 0.00 0.00 0.00 44 1014.8
20260508230052 88 0 0.0 4.0 0.00 0.00 0.00 46 1015.0
20260508224550 87 0 1.0 3.0 0.00 0.00 0.00 46 1015.2
20260508223048 87 349 1.0 4.0 0.00 0.00 0.00 46 1015.4
20260508221545 86 18 1.0 5.0 0.00 0.00 0.00 47 1015.8
20260508220050 86 325 1.0 3.0 0.00 0.00 0.00 51 1016.0
20260508214546 84 29 1.0 5.0 0.00 0.00 0.00 47 1016.3
20260508213051 85 74 0.0 3.0 0.00 0.00 0.00 54 1016.5
20260508211540 84 302 2.0 5.0 0.00 0.00 0.00 51 1016.7
20260508210042 83 61 2.0 7.0 0.00 0.00 0.00 54 1016.9
20260508204546 82 0 1.0 5.0 0.00 0.00 0.00 53 1017.0
20260508203043 82 34 0.0 3.0 0.00 0.00 0.00 57 1017.0
20260508201543 81 35 2.0 5.0 0.00 0.00 0.00 56 1016.9
20260508200043 80 330 1.0 3.0 0.00 0.00 0.00 58 1017.2
20260508194548 78 320 1.0 5.0 0.00 0.00 0.00 57 1017.2
20260508193100 77 11 1.0 3.0 0.00 0.00 0.00 59 1017.5
20260508191600 77 317 1.0 5.0 0.00 0.00 0.00 59 1017.6
20260508184544 75 0 0.0 2.0 0.00 0.00 0.00 63 1017.7
20260508183044 73 0 1.0 3.0 0.00 0.00 0.00 66 1017.9
20260508181553 71 322 0.0 3.0 0.00 0.00 0.00 70 1017.8
20260508180046 69 0 0.0 3.0 0.00 0.00 0.00 70 1017.6
20260508174548 68 175 0.0 2.0 0.00 0.00 0.00 71 1017.8
20260508173044 67 174 0.0 2.0 0.00 0.00 0.00 74 1017.6
20260508171552 65 173 0.0 5.0 0.00 0.00 0.00 75 1017.8
20260508170052 65 192 0.0 3.0 0.00 0.00 0.00 77 1017.5
20260508164547 63 196 0.0 3.0 0.00 0.00 0.00 78 1017.6
20260508163058 62 0 0.0 2.0 0.00 0.00 0.00 79 1017.7
20260508161554 62 193 0.0 3.0 0.00 0.00 0.00 78 1017.7
20260508160043 61 192 0.0 1.0 0.00 0.00 0.00 81 1017.7
20260508154543 59 0 0.0 2.0 0.00 0.00 0.00 83 1017.7
20260508153106 58 0 0.0 3.0 0.00 0.00 0.00 85 1017.6
20260508151548 56 0 0.0 2.0 0.00 0.00 0.00 86 1017.4
20260508150051 55 0 0.0 2.0 0.00 0.00 0.00 88 1017.4
20260508144543 54 0 0.0 1.0 0.00 0.00 0.00 89 1017.2
20260508143101 54 0 0.0 2.0 0.00 0.00 0.00 89 1017.2
20260508141540 53 0 0.0 1.0 0.00 0.00 0.00 90 1017.0
20260508140057 53 0 0.0 2.0 0.00 0.00 0.00 90 1016.8
20260508134545 52 0 0.0 2.0 0.00 0.00 0.00 90 1016.6
20260508133042 52 0 0.0 1.0 0.00 0.00 0.00 90 1016.5
20260508131543 52 0 0.0 2.0 0.00 0.00 0.00 90 1016.5
20260508130040 52 0 0.0 0.0 0.00 0.00 0.00 90 1016.4
20260508124549 52 0 0.0 0.0 0.00 0.00 0.00 90 1016.3
20260508123048 52 0 0.0 1.0 0.00 0.00 0.00 89 1016.2
20260508121546 52 0 0.0 1.0 0.00 0.00 0.00 89 1016.2
20260508120050 53 0 0.0 2.0 0.00 0.00 0.00 88 1016.1
20260508114539 53 191 0.0 1.0 0.00 0.00 0.00 88 1016.0
20260508113053 53 191 0.0 3.0 0.00 0.00 0.00 88 1015.9
20260508111544 53 0 0.0 3.0 0.00 0.00 0.00 88 1015.8
20260508110048 54 0 0.0 2.0 0.00 0.00 0.00 88 1015.9
20260508104542 54 0 0.0 2.0 0.00 0.00 0.00 88 1015.9
20260508103050 54 191 0.0 2.0 0.00 0.00 0.00 87 1015.8
20260508101551 55 0 0.0 3.0 0.00 0.00 0.00 87 1015.7
20260508094544 55 192 0.0 3.0 0.00 0.00 0.00 86 1015.6
20260508093051 56 192 0.0 2.0 0.00 0.00 0.00 86 1015.6
20260508091608 56 0 0.0 3.0 0.00 0.00 0.00 86 1015.6
20260508090051 56 192 0.0 2.0 0.00 0.00 0.00 85 1015.5
20260508084547 57 0 0.0 2.0 0.00 0.00 0.00 85 1015.6
20260508083051 57 0 0.0 3.0 0.00 0.00 0.00 85 1015.8
20260508081610 58 0 0.0 1.0 0.00 0.00 0.00 84 1015.9
20260508080049 59 192 0.0 2.0 0.00 0.00 0.00 83 1015.8
20260508074549 60 198 0.0 1.0 0.00 0.00 0.00 82 1015.7
20260508073047 60 0 0.0 2.0 0.00 0.00 0.00 81 1015.5
20260508071544 61 0 0.0 2.0 0.00 0.00 0.00 80 1015.5
20260508070051 62 198 0.0 2.0 0.00 0.00 0.00 80 1015.4
20260508064549 63 0 0.0 1.0 0.00 0.00 0.00 79 1015.4
20260508063046 64 0 0.0 2.0 0.00 0.00 0.00 79 1015.3
20260508061545 65 0 0.0 2.0 0.00 0.00 0.00 78 1015.2
20260508060056 65 0 0.0 1.0 0.00 0.00 0.00 78 1015.2
20260508054613 66 0 0.0 1.0 0.00 0.00 0.00 77 1015.4
20260508053048 67 0 0.0 2.0 0.00 0.00 0.00 76 1015.4
20260508051548 68 0 0.0 2.0 0.00 0.00 0.00 75 1015.4
20260508050045 69 0 0.0 1.0 0.00 0.00 0.00 74 1015.4
20260508044543 70 198 0.0 1.0 0.00 0.00 0.00 73 1015.5
20260508043041 70 0 0.0 1.0 0.00 0.00 0.00 72 1015.2
20260508041551 71 0 0.0 3.0 0.00 0.00 0.00 71 1015.1
20260508040049 72 198 0.0 1.0 0.00 0.00 0.00 69 1015.0
20260508034550 74 0 0.0 2.0 0.00 0.00 0.00 69 1014.7
20260508033045 75 0 0.0 3.0 0.00 0.00 0.00 68 1014.6
20260508031556 76 205 0.0 2.0 0.00 0.00 0.00 67 1014.3
20260508030053 77 0 0.0 3.0 0.00 0.00 0.00 64 1014.3
20260508024559 79 183 0.0 4.0 0.00 0.00 0.00 62 1014.5